EW2493 Weather Reports


Display with metric or nautical units.
time (UTC)temp
F
wind
direction
speed
MPH
gust
MPH
rain 1hr
in
rain 24hr
in
rain mn
in
humidity
%
barometer
mb
20260507141548 44 239 2.0 7.0 0.00 0.00 0.00 61 1006.2
20260507140034 43 153 3.0 6.0 0.00 0.00 0.00 61 1006.2
20260507134533 42 219 1.0 6.0 0.00 0.00 0.00 63 1006.0
20260507133035 40 239 0.0 2.0 0.00 0.00 0.00 68 1006.1
20260507131521 38 265 0.0 2.0 0.00 0.00 0.00 69 1006.1
20260507130018 36 287 0.0 1.0 0.00 0.00 0.00 73 1006.0
20260507124518 35 287 0.0 1.0 0.00 0.00 0.00 78 1005.9
20260507123019 32 286 0.0 1.0 0.00 0.00 0.00 82 1005.9
20260507121517 29 286 0.0 0.0 0.00 0.00 0.00 84 1005.9
20260507120015 27 286 0.0 0.0 0.00 0.00 0.00 83 1005.6
20260507114514 25 286 0.0 0.0 0.00 0.00 0.00 84 1005.6
20260507113014 24 286 0.0 0.0 0.00 0.00 0.00 85 1005.6
20260507111512 24 286 0.0 1.0 0.00 0.00 0.00 84 1005.6
20260507110011 25 286 0.0 1.0 0.00 0.00 0.00 85 1005.5
20260507104510 24 286 0.0 1.0 0.00 0.00 0.00 84 1005.7
20260507103008 25 88 0.0 1.0 0.00 0.00 0.00 83 1005.8
20260507101507 25 88 0.0 1.0 0.00 0.00 0.00 83 1005.9
20260507100004 25 88 0.0 1.0 0.00 0.00 0.00 82 1006.0
20260507094500 26 88 0.0 1.0 0.00 0.00 0.00 82 1005.9
20260507093058 27 88 0.0 1.0 0.00 0.00 0.00 79 1005.9
20260507091556 27 88 0.0 1.0 0.00 0.00 0.00 80 1006.0
20260507084550 29 88 0.0 1.0 0.00 0.00 0.00 74 1006.2
20260507083049 30 88 0.0 1.0 0.00 0.00 0.00 76 1006.1
20260507081544 32 88 0.0 0.0 0.00 0.00 0.00 72 1006.2
20260507080044 32 88 0.0 0.0 0.00 0.00 0.00 71 1006.2
20260507074546 34 89 0.0 1.0 0.00 0.00 0.00 70 1006.2
20260507073040 35 46 0.0 1.0 0.00 0.00 0.00 70 1006.2
20260507071536 35 74 1.0 3.0 0.00 0.00 0.00 71 1006.3
20260507070043 35 147 0.0 3.0 0.00 0.00 0.00 69 1006.2
20260507064535 35 159 3.0 5.0 0.00 0.00 0.00 68 1006.1
20260507063031 36 168 2.0 6.0 0.00 0.00 0.00 67 1006.2
20260507061528 36 160 3.0 6.0 0.00 0.00 0.00 67 1006.3
20260507060025 36 148 3.0 7.0 0.00 0.00 0.00 67 1006.3
20260507054523 36 154 4.0 8.0 0.00 0.00 0.00 66 1006.4
20260507053021 37 151 3.0 6.0 0.00 0.00 0.00 66 1006.5
20260507051518 37 159 3.0 7.0 0.00 0.00 0.00 66 1006.6
20260507050025 37 140 2.0 7.0 0.00 0.00 0.00 66 1006.6
20260507044512 37 130 3.0 6.0 0.00 0.00 0.00 64 1006.8
20260507043011 37 127 2.0 4.0 0.00 0.00 0.00 66 1007.0
20260507041509 37 112 2.0 4.0 0.00 0.00 0.00 64 1007.3
20260507040006 38 102 2.0 5.0 0.00 0.00 0.00 63 1007.5
20260507034505 37 117 1.0 3.0 0.00 0.00 0.00 62 1007.7
20260507033005 38 82 1.0 4.0 0.00 0.00 0.00 60 1007.8
20260507031506 38 80 1.0 3.0 0.00 0.00 0.00 60 1007.9
20260507030005 39 81 1.0 4.0 0.00 0.00 0.00 58 1007.9
20260507024506 40 57 2.0 4.0 0.00 0.00 0.00 57 1007.9
20260507023004 41 69 1.0 3.0 0.00 0.00 0.00 55 1007.8
20260507021503 42 69 1.0 4.0 0.00 0.00 0.00 54 1007.7
20260507020001 43 69 1.0 4.0 0.00 0.00 0.00 53 1007.7
20260507013104 46 47 1.0 3.0 0.00 0.00 0.00 48 1007.6
20260507011600 47 39 2.0 4.0 0.00 0.00 0.00 45 1007.6
20260507010059 48 40 1.0 3.0 0.00 0.00 0.00 43 1007.7
20260507004558 48 12 4.0 6.0 0.00 0.00 0.00 42 1007.7
20260507003101 49 348 4.0 6.0 0.00 0.00 0.00 40 1007.7
20260507001557 49 327 4.0 8.0 0.00 0.00 0.00 39 1007.9
20260507000054 50 5 2.0 5.0 0.00 0.00 0.00 39 1008.0
20260506234603 50 274 1.0 6.0 0.00 0.00 0.00 38 1008.1
20260506233055 49 306 0.0 11.0 0.00 0.00 0.00 39 1008.2
20260506231554 50 317 7.0 14.0 0.00 0.00 0.00 39 1008.2
20260506230048 50 308 2.0 14.0 0.00 0.00 0.00 40 1008.3
20260506224547 50 304 5.0 14.0 0.00 0.00 0.00 40 1008.4
20260506223045 50 292 4.0 15.0 0.00 0.00 0.00 38 1008.6
20260506221545 50 272 2.0 11.0 0.00 0.00 0.00 38 1008.7
20260506220041 50 296 6.0 19.0 0.00 0.00 0.00 39 1008.9
20260506214540 50 300 10.0 18.0 0.00 0.00 0.00 38 1009.2
20260506213038 49 277 1.0 11.0 0.00 0.00 0.00 39 1009.3
20260506211533 48 353 6.0 13.0 0.00 0.00 0.00 41 1009.6
20260506210034 48 328 9.0 17.0 0.00 0.00 0.00 41 1009.7
20260506204529 48 291 8.0 16.0 0.00 0.00 0.00 41 1009.8
20260506203036 48 311 6.0 16.0 0.00 0.00 0.00 40 1010.0
20260506201526 47 336 7.0 16.0 0.00 0.00 0.00 43 1010.1
20260506200023 47 320 10.0 16.0 0.00 0.00 0.00 43 1010.2
20260506194520 47 335 10.0 16.0 0.00 0.00 0.00 42 1010.3
20260506191518 47 319 6.0 18.0 0.00 0.00 0.00 42 1010.6
20260506190012 46 317 10.0 19.0 0.00 0.00 0.00 44 1010.7
20260506184510 46 327 9.0 16.0 0.00 0.00 0.00 44 1010.8
20260506183011 45 306 8.0 18.0 0.00 0.00 0.00 45 1011.0
20260506181507 45 314 8.0 21.0 0.00 0.00 0.00 45 1011.3
20260506180007 45 290 8.0 17.0 0.00 0.00 0.00 46 1011.5
20260506174502 44 308 9.0 16.0 0.00 0.00 0.00 45 1011.7
20260506173002 44 296 8.0 17.0 0.00 0.00 0.00 46 1011.9
20260506171617 44 331 8.0 17.0 0.00 0.00 0.00 46 1011.9
20260506170058 43 320 9.0 14.0 0.00 0.00 0.00 47 1012.1
20260506164606 43 313 12.0 19.0 0.00 0.00 0.00 47 1012.1
20260506163104 42 306 7.0 15.0 0.00 0.00 0.00 49 1012.2
20260506161622 42 296 5.0 15.0 0.00 0.00 0.00 51 1012.2
20260506160051 42 312 8.0 13.0 0.00 0.00 0.00 53 1012.2
20260506154552 42 329 10.0 16.0 0.00 0.00 0.00 52 1012.3
20260506153051 41 304 5.0 14.0 0.00 0.00 0.00 54 1012.3
20260506151548 41 291 2.0 12.0 0.00 0.00 0.00 58 1012.3
20260506150045 40 282 5.0 12.0 0.00 0.00 0.00 57 1012.4
20260506144543 40 306 5.0 12.0 0.00 0.00 0.00 58 1012.5
20260506143043 40 311 6.0 11.0 0.00 0.00 0.00 57 1012.6